Погода в Погосте

Россия / Ивановская область     57°13′04″N   41°14′21″E
темп.,
°C
ветер,
м/с
пор.,
м/с
влажн.,
%
обл.,
%
осадки,
мм/ч
давл.,
гПа
погр.,
м
26 сентября, вс
вс2600:00+8ююв4986100 0.2 1004425
03:00+8юв4895100 1.1 1003412
06:00+8юв3698100 2.3 1003319
09:00+8вюв3796100 2.9 1003298
12:00+9в4795100 0.9 1005423
15:00+9всв4795100 1.6 1007423
18:00+8св4995100 0.4 1010441
21:00+8ссв41094100 1.1 1013416
27 сентября, пн
пн2700:00+7с4109527 0.1 1015274
03:00+7с51095100 0.1 1016486
06:00+8с5119592 0.3 1018489
09:00+9ссв6990100 0.3 1019769
12:00+8ссв61089100 0.1 1021815
15:00+8ссв6990100 0.2 1022841
18:00+8св61089100 0.2 1024994
21:00+6всв6987100 0.3 1026967
28 сентября, вт
вт2800:00+6св41088100 0.1 1027621
03:00+5св4889100 0.1 1028528
06:00+3св48925 0.0 1030327
09:00+5всв47775 0.0 1031432
12:00+9всв455692 0.0 1031926
15:00+10св444841 0.0 10311101
18:00+6св33675 0.0 103227
21:00+4ссв23755 0.0 103435
29 сентября, ср
ср2900:00+3ссв22791 0.0 103420
03:00+2с22825 0.0 103431
06:00+1с338522 0.0 103550
09:00+5с24705 0.0 1035228
12:00+10с23555 0.0 1035764
15:00+11ссз33545 0.0 1034939
18:00+7ссз337385 0.0 103425
21:00+8ссз2474100 0.0 103485
30 сентября, чт
чт3000:00+7ссз2481100 0.0 1034115
03:00+6сз24877 0.0 103482
06:00+6сз3687100 0.0 1034178
09:00+9ссз3580100 0.0 1034329
12:00+11ссз237395 0.0 1034557
15:00+14ссз346686 0.0 10331035
18:00+12сз3575100 0.0 1033102
21:00+9ссз378852 0.0 1033129